Location: Eferding
(48.3167°N, 14.0167°E)
Time: 19:27:40
(UTC+00:00)

CSL-04 Rocket - Pass Details

Date: 12 November 2019
Orbit: 806 x 860 km, 99.0° (Epoch: 07 December)

Event Time Altitude Azimuth Distance (km) Brightness Sun altitude
Rises 17:36:13 0° 169° (SSE) 3,367 6.7 -21.1°
Reaches altitude 10° 17:38:35 10° 171° (S) 2,430 6.0 -21.5°
Maximum altitude 17:43:58 73° 256° (WSW) 860 3.8 -22.4°
Drops below altitude 10° 17:49:18 10° 342° (NNW) 2,415 6.3 -23.3°
Sets 17:51:39 0° 344° (NNW) 3,345 7.0 -23.7°
